User: anonymous   Login
Location: Theydon Bois
(51.6750°N, 0.1050°E)
Time: 18:30:26
(UTC+01:00)
Language:

Cosmos-2242 - Orbit

View from above orbital plane
View from above orbital plane
View from above satellite
View from above satellite

Ground track
Ground track

The orbit data is extracted from the following two-line orbital elements,

1 22626U 93024A   18175.74192304 +.00000186 +00000-0 +17588-4 0  9996
2 22626 082.5224 050.5607 0018172 328.5076 031.5052 14.87812309361241
Epoch (UTC): 24 June 2018 17:48:22
Eccentricity: 0.0018172
inclination: 82.5224°
perigee height: 592 km
apogee height: 617 km
right ascension of ascending node: 50.5607°
argument of perigee: 328.5076°
revolutions per day: 14.87812309
mean anomaly at epoch: 31.5052°
orbit number at epoch: 36124

The dashed part of the orbit path shows where the satellite is in the earth's shadow,  

DLR